Weather in Barano-Orenburgskoye

Russia / Primorsky Krai     44°22′09″N   131°27′02″E
В апреле 2022 года жителям России запретили посещать сайт meteo.paraplan.net по решению Генеральной прокуратуры. Аудитория сайта уменьшилась в 10 раз. Владельцы сайта не видят смысла в поддержке погодного сервера в таких условиях. Сайт будет закрыт в октябре.
temp.,
°C
wind,
m/s
gust,
m/s
humid.,
%
clouds,
%
prec.,
mm/h
press.,
hPa
HPBL,
m
4 october, tue
tue401:00+4n61392100 2.1 1018833
04:00+2n61289100 3.2 10191105
07:00+2nnw411833 0.1 1020812
10:00+4nnw511612 0.1 10201323
13:00+8nnw71137100 0.0 10182440
16:00+8nnw7103699 0.0 10172443
19:00+4nnw410412 0.0 1021939
22:00+2nw511460 0.0 1023772
5 october, wed
wed501:00+1wnw411460 0.0 1023537
04:00−1w36520 0.0 1024145
07:00−1w27520 0.0 1025140
10:00+5nw48320 0.0 10251438
13:00+8nw47255 0.0 10232440
16:00+9wnw5827100 0.0 10212696
19:00+4wnw36435 0.0 1023106
22:00+2w26495 0.0 102599
6 october, thu
thu601:00+1w28580 0.0 1026172
04:000w25600 0.0 102690
07:00−1w22590 0.0 102731
10:00+6wnw36340 0.0 1028799
13:00+9wnw34273 0.0 10262179
16:00+10nw34275 0.0 10242453
19:00+5wnw22435 0.0 102515
22:00+3wsw1145100 0.0 102610
7 october, fri
fri701:00+2wsw1147100 0.0 102610
04:00+2wsw1148100 0.0 102610
07:00+1wsw115241 0.0 102610
10:00+7w13400 0.0 1026333
13:00+11wnw452998 0.0 10242551
16:00+11nw462983 0.0 10232520
19:00+6wnw22485 0.0 102516
22:00+4w21500 0.0 102610
8 october, sat
sat801:00+3w11550 0.0 102710
04:00+3w11560 0.0 102710
07:00+2wsw11572 0.0 102810
10:00+8ssw1244100 0.0 1028228
13:00+12ssw34337 0.0 1027928
16:00+14s34295 0.0 10251450
19:00+7sse23565 0.0 102748
22:00+5s23685 0.0 102758